Terminal Aerodrome Forecast
Issued by NWS Denver/Boulder, CO

Home | Current Version | Previous Version | Text Only | Print | Product List | Glossary On
Versions: 1 2 3 4 5 6 7 8 9 10 11 12 13 14 15 16 17 18 19 20 21 22 23 24 25 26 27 28 29 30 31 32 33 34 35 36 37 38 39 40 41 42 43 44 45 46 47 48 49 50
000
FTUS45 KBOU 281120
TAFDEN
TAF
KDEN 281120Z 2812/2918 19006KT P6SM FEW120 BKN220
     FM281400 VRB05KT P6SM SCT120 BKN220
     FM281900 16006KT P6SM SCT100 BKN200
     FM290200 21008KT P6SM SCT090 BKN180
     FM290900 25007KT P6SM VCSH SCT050 BKN080
     FM291100 01012KT P6SM SCT025 OVC050
      TEMPO 2912/2914 3SM -SHSN SCT015 BKN025
     FM291400 01015KT 3/4SM -SN BR SCT008 OVC015=

USA.gov is the U.S. government's official web portal to all federal, state and local government web resources and services.